INTELSAT 901 (IS-901)

Last updated on Mon Oct 14 2024 00:02:37 GMT+0000 (Coordinated Universal Time)

1 26824U 01024A 24287.43174969 -.00000203 00000+0 00000+0 0 9999 2 26824 0.0537 82.3224 0001407 191.6638 236.4683 1.00273045 16850
UTC large
Height (km)
Speed (km/s)
/
Latitude / Longitude
Inclination (degrees)
Orbital Period (minutes)
Azimuth
Elevation
Range (km)
Doppler Factor

Next 0 passes for location: London (51.5072 / 0.1276)

Sorry there are no passes over London.